| time (UTC) | temp C | wind direction | speed KPH | gust KPH | rain 1hr cm | rain 24hr cm | rain mn cm | humidity % | barometer mb |
| 20260504195015 | 19 | 175 | 6.4 | 29.0 | 0.00 | 0.00 | 0.00 | 52 | 1010.1 |
| 20260504194513 | 19 | 191 | 11.3 | 25.7 | 0.00 | 0.00 | 0.00 | 52 | 1010.2 |
| 20260504194011 | 19 | 183 | 8.0 | 24.1 | 0.00 | 0.00 | 0.00 | 52 | 1010.3 |
| 20260504193510 | 19 | 181 | 11.3 | 24.1 | 0.00 | 0.00 | 0.00 | 49 | 1010.3 |
| 20260504193007 | 20 | 150 | 11.3 | 29.0 | 0.00 | 0.00 | 0.00 | 49 | 1010.4 |
| 20260504192505 | 20 | 109 | 9.7 | 24.1 | 0.00 | 0.00 | 0.00 | 50 | 1010.4 |
| 20260504192004 | 20 | 154 | 12.9 | 24.1 | 0.00 | 0.00 | 0.00 | 48 | 1010.5 |
| 20260504191505 | 20 | 200 | 9.7 | 22.5 | 0.00 | 0.00 | 0.00 | 50 | 1010.5 |
| 20260504191059 | 20 | 200 | 6.4 | 33.8 | 0.00 | 0.00 | 0.00 | 48 | 1010.5 |
| 20260504190518 | 20 | 217 | 8.0 | 33.8 | 0.00 | 0.00 | 0.00 | 47 | 1010.6 |
| 20260504190023 | 20 | 199 | 6.4 | 22.5 | 0.00 | 0.00 | 0.00 | 48 | 1010.5 |
| 20260504185513 | 20 | 220 | 9.7 | 24.1 | 0.00 | 0.00 | 0.00 | 48 | 1010.5 |
| 20260504185012 | 20 | 172 | 11.3 | 25.7 | 0.00 | 0.00 | 0.00 | 48 | 1010.6 |
| 20260504184513 | 20 | 163 | 12.9 | 27.4 | 0.00 | 0.00 | 0.00 | 47 | 1010.5 |
| 20260504184014 | 20 | 123 | 8.0 | 27.4 | 0.00 | 0.00 | 0.00 | 47 | 1010.5 |
| 20260504183509 | 20 | 165 | 12.9 | 29.0 | 0.00 | 0.00 | 0.00 | 46 | 1010.6 |
| 20260504183009 | 20 | 197 | 12.9 | 29.0 | 0.00 | 0.00 | 0.00 | 43 | 1010.6 |
| 20260504182508 | 20 | 185 | 8.0 | 25.7 | 0.00 | 0.00 | 0.00 | 44 | 1010.5 |
| 20260504182003 | 20 | 161 | 11.3 | 32.2 | 0.00 | 0.00 | 0.00 | 44 | 1010.6 |
| 20260504181503 | 20 | 150 | 14.5 | 32.2 | 0.00 | 0.00 | 0.00 | 45 | 1010.6 |
| 20260504181101 | 20 | 184 | 8.0 | 29.0 | 0.00 | 0.00 | 0.00 | 45 | 1010.5 |
| 20260504180519 | 20 | 192 | 9.7 | 33.8 | 0.00 | 0.00 | 0.00 | 44 | 1010.7 |
| 20260504180017 | 20 | 142 | 11.3 | 33.8 | 0.00 | 0.00 | 0.00 | 43 | 1010.8 |
| 20260504175517 | 20 | 202 | 6.4 | 24.1 | 0.00 | 0.00 | 0.00 | 44 | 1010.7 |
| 20260504175017 | 20 | 254 | 12.9 | 24.1 | 0.00 | 0.00 | 0.00 | 41 | 1010.7 |
| 20260504174512 | 20 | 177 | 8.0 | 27.4 | 0.00 | 0.00 | 0.00 | 44 | 1010.9 |
| 20260504174009 | 20 | 248 | 11.3 | 27.4 | 0.00 | 0.00 | 0.00 | 41 | 1010.9 |
| 20260504173511 | 20 | 215 | 8.0 | 24.1 | 0.00 | 0.00 | 0.00 | 40 | 1011.0 |
| 20260504173009 | 20 | 221 | 9.7 | 22.5 | 0.00 | 0.00 | 0.00 | 43 | 1011.1 |
| 20260504172508 | 20 | 151 | 9.7 | 29.0 | 0.00 | 0.00 | 0.00 | 46 | 1011.2 |
| 20260504172006 | 20 | 340 | 9.7 | 29.0 | 0.00 | 0.00 | 0.00 | 45 | 1011.3 |
| 20260504171504 | 20 | 74 | 9.7 | 25.7 | 0.00 | 0.00 | 0.00 | 45 | 1011.4 |
| 20260504171003 | 20 | 192 | 6.4 | 25.7 | 0.00 | 0.00 | 0.00 | 43 | 1011.4 |
| 20260504170602 | 20 | 242 | 8.0 | 17.7 | 0.00 | 0.00 | 0.00 | 45 | 1011.5 |
| 20260504160117 | 18 | 236 | 8.0 | 29.0 | 0.00 | 0.00 | 0.00 | 41 | 1012.3 |
| 20260504151005 | 17 | 303 | 12.9 | 33.8 | 0.00 | 0.00 | 0.00 | 42 | 1013.0 |
| 20260504150502 | 17 | 261 | 8.0 | 30.6 | 0.00 | 0.00 | 0.00 | 43 | 1013.1 |
| 20260504141101 | 15 | 210 | 8.0 | 19.3 | 0.00 | 0.00 | 0.00 | 51 | 1013.1 |
| 20260504140514 | 15 | 213 | 6.4 | 24.1 | 0.00 | 0.00 | 0.00 | 51 | 1013.2 |
| 20260504130510 | 13 | 202 | 3.2 | 22.5 | 0.00 | 0.00 | 0.00 | 57 | 1013.6 |
| 20260504110512 | 8 | 178 | 4.8 | 11.3 | 0.00 | 0.00 | 0.00 | 65 | 1014.1 |
| 20260504100516 | 8 | 224 | 3.2 | 8.0 | 0.00 | 0.00 | 0.00 | 63 | 1013.9 |
| 20260504081513 | 7 | 175 | 3.2 | 11.3 | 0.00 | 0.00 | 0.00 | 64 | 1013.3 |
| 20260504081015 | 7 | 213 | 1.6 | 9.7 | 0.00 | 0.00 | 0.00 | 65 | 1013.2 |
| 20260504080515 | 7 | 241 | 1.6 | 9.7 | 0.00 | 0.00 | 0.00 | 65 | 1013.2 |
| 20260504050516 | 5 | 261 | 0.0 | 3.2 | 0.00 | 0.00 | 0.00 | 75 | 1012.5 |
| 20260504050011 | 5 | 261 | 0.0 | 3.2 | 0.00 | 0.00 | 0.00 | 75 | 1012.5 |
| 20260504045509 | 5 | 261 | 0.0 | 1.6 | 0.00 | 0.00 | 0.00 | 75 | 1012.5 |
| 20260504045007 | 5 | 261 | 0.0 | 1.6 | 0.00 | 0.00 | 0.00 | 74 | 1012.6 |
| 20260504044511 | 5 | 261 | 0.0 | 1.6 | 0.00 | 0.00 | 0.00 | 74 | 1012.5 |
| 20260504044003 | 5 | 261 | 0.0 | 0.0 | 0.00 | 0.00 | 0.00 | 73 | 1012.4 |
| 20260504043505 | 5 | 261 | 0.0 | 0.0 | 0.00 | 0.00 | 0.00 | 73 | 1012.4 |
| 20260504043005 | 5 | 261 | 0.0 | 0.0 | 0.00 | 0.00 | 0.00 | 73 | 1012.3 |
| 20260504042500 | 5 | 261 | 0.0 | 0.0 | 0.00 | 0.00 | 0.00 | 73 | 1012.4 |
| 20260504042059 | 5 | 261 | 0.0 | 0.0 | 0.00 | 0.00 | 0.00 | 73 | 1012.4 |
| 20260504041521 | 5 | 261 | 0.0 | 0.0 | 0.00 | 0.00 | 0.00 | 72 | 1012.3 |
| 20260504041015 | 5 | 261 | 0.0 | 0.0 | 0.00 | 0.00 | 0.00 | 72 | 1012.3 |
| 20260504040514 | 5 | 261 | 0.0 | 0.0 | 0.00 | 0.00 | 0.00 | 71 | 1012.3 |
| 20260504040013 | 5 | 261 | 0.0 | 0.0 | 0.00 | 0.00 | 0.00 | 71 | 1012.2 |
| 20260504035507 | 5 | 261 | 0.0 | 0.0 | 0.00 | 0.00 | 0.00 | 71 | 1012.3 |
| 20260504035004 | 5 | 261 | 0.0 | 0.0 | 0.00 | 0.00 | 0.00 | 71 | 1012.2 |
| 20260504034503 | 5 | 261 | 0.0 | 0.0 | 0.00 | 0.00 | 0.00 | 70 | 1012.3 |
| 20260504034001 | 5 | 261 | 0.0 | 0.0 | 0.00 | 0.00 | 0.00 | 70 | 1012.2 |
| 20260504033602 | 6 | 261 | 0.0 | 0.0 | 0.00 | 0.00 | 0.00 | 70 | 1012.1 |
| 20260504033057 | 6 | 261 | 0.0 | 0.0 | 0.00 | 0.00 | 0.00 | 69 | 1012.2 |
| 20260504032513 | 6 | 261 | 0.0 | 0.0 | 0.00 | 0.00 | 0.00 | 69 | 1012.1 |
| 20260504032015 | 6 | 261 | 0.0 | 0.0 | 0.00 | 0.00 | 0.00 | 69 | 1012.1 |
| 20260504031513 | 6 | 261 | 0.0 | 0.0 | 0.00 | 0.00 | 0.00 | 69 | 1012.1 |
| 20260504031015 | 6 | 261 | 0.0 | 0.0 | 0.00 | 0.00 | 0.00 | 69 | 1012.0 |
| 20260504030514 | 6 | 261 | 0.0 | 0.0 | 0.00 | 0.00 | 0.00 | 68 | 1012.0 |
| 20260504030012 | 6 | 261 | 0.0 | 0.0 | 0.00 | 0.00 | 0.00 | 68 | 1012.0 |
| 20260504025509 | 6 | 261 | 0.0 | 0.0 | 0.00 | 0.00 | 0.00 | 67 | 1012.0 |
| 20260504025003 | 6 | 261 | 0.0 | 0.0 | 0.00 | 0.00 | 0.00 | 67 | 1012.0 |
| 20260504024604 | 6 | 261 | 0.0 | 0.0 | 0.00 | 0.00 | 0.00 | 67 | 1011.8 |
| 20260504024058 | 6 | 261 | 0.0 | 0.0 | 0.00 | 0.00 | 0.00 | 66 | 1012.0 |
| 20260504023517 | 6 | 261 | 0.0 | 0.0 | 0.00 | 0.00 | 0.00 | 66 | 1012.1 |
| 20260504023018 | 7 | 261 | 0.0 | 0.0 | 0.00 | 0.00 | 0.00 | 65 | 1012.0 |
| 20260504022514 | 7 | 261 | 0.0 | 0.0 | 0.00 | 0.00 | 0.00 | 65 | 1012.1 |
| 20260504022011 | 7 | 261 | 0.0 | 0.0 | 0.00 | 0.00 | 0.00 | 64 | 1012.1 |
| 20260504021506 | 7 | 261 | 0.0 | 0.0 | 0.00 | 0.00 | 0.00 | 64 | 1012.1 |
| 20260504021007 | 7 | 261 | 0.0 | 0.0 | 0.00 | 0.00 | 0.00 | 64 | 1012.1 |
| 20260504020506 | 7 | 261 | 0.0 | 0.0 | 0.00 | 0.00 | 0.00 | 63 | 1012.0 |
| 20260504020004 | 7 | 261 | 0.0 | 0.0 | 0.00 | 0.00 | 0.00 | 62 | 1012.0 |
| 20260504015502 | 7 | 261 | 0.0 | 0.0 | 0.00 | 0.00 | 0.00 | 61 | 1012.0 |
| 20260504015100 | 8 | 261 | 0.0 | 0.0 | 0.00 | 0.00 | 0.00 | 61 | 1012.0 |
| 20260504014518 | 8 | 261 | 0.0 | 0.0 | 0.00 | 0.00 | 0.00 | 60 | 1012.1 |
| 20260504014015 | 8 | 261 | 0.0 | 0.0 | 0.00 | 0.00 | 0.00 | 60 | 1012.0 |
| 20260504013515 | 8 | 261 | 0.0 | 0.0 | 0.00 | 0.00 | 0.00 | 59 | 1012.0 |
| 20260504013017 | 8 | 261 | 0.0 | 0.0 | 0.00 | 0.00 | 0.00 | 59 | 1011.8 |
| 20260504012511 | 8 | 261 | 0.0 | 0.0 | 0.00 | 0.00 | 0.00 | 58 | 1011.8 |
| 20260504012009 | 9 | 261 | 0.0 | 0.0 | 0.00 | 0.00 | 0.00 | 57 | 1011.7 |
| 20260504011517 | 9 | 261 | 0.0 | 0.0 | 0.00 | 0.00 | 0.00 | 56 | 1011.7 |
| 20260504011006 | 9 | 261 | 0.0 | 0.0 | 0.00 | 0.00 | 0.00 | 56 | 1011.6 |
| 20260504010500 | 10 | 261 | 0.0 | 0.0 | 0.00 | 0.00 | 0.00 | 54 | 1011.6 |
| 20260504010004 | 10 | 261 | 0.0 | 0.0 | 0.00 | 0.00 | 0.00 | 53 | 1011.6 |
| 20260504005500 | 10 | 261 | 0.0 | 0.0 | 0.00 | 0.00 | 0.00 | 52 | 1011.4 |
| 20260504005059 | 10 | 261 | 0.0 | 0.0 | 0.00 | 0.00 | 0.00 | 51 | 1011.5 |
| 20260504004520 | 11 | 261 | 0.0 | 0.0 | 0.00 | 0.00 | 0.00 | 50 | 1011.4 |
| 20260504004015 | 11 | 261 | 0.0 | 0.0 | 0.00 | 0.00 | 0.00 | 49 | 1011.3 |
| 20260504003513 | 11 | 261 | 0.0 | 0.0 | 0.00 | 0.00 | 0.00 | 48 | 1011.3 |
| 20260504003010 | 11 | 261 | 0.0 | 0.0 | 0.00 | 0.00 | 0.00 | 46 | 1011.1 |
| 20260504002508 | 12 | 261 | 0.0 | 0.0 | 0.00 | 0.00 | 0.00 | 46 | 1011.1 |
| 20260504002011 | 12 | 261 | 0.0 | 1.6 | 0.00 | 0.00 | 0.00 | 44 | 1011.1 |
| 20260504001506 | 12 | 261 | 0.0 | 1.6 | 0.00 | 0.00 | 0.00 | 43 | 1010.9 |
| 20260504001004 | 12 | 261 | 0.0 | 1.6 | 0.00 | 0.00 | 0.00 | 43 | 1010.9 |
| 20260504000501 | 12 | 261 | 0.0 | 3.2 | 0.00 | 0.00 | 0.00 | 41 | 1010.8 |
| 20260504000001 | 13 | 261 | 0.0 | 3.2 | 0.00 | 0.00 | 0.00 | 39 | 1010.8 |
| 20260503235557 | 13 | 261 | 0.0 | 4.8 | 0.00 | 0.00 | 0.00 | 39 | 1010.7 |
| 20260503235102 | 13 | 261 | 0.0 | 4.8 | 0.00 | 0.00 | 0.00 | 38 | 1010.6 |
| 20260503234518 | 13 | 261 | 0.0 | 3.2 | 0.00 | 0.00 | 0.00 | 38 | 1010.6 |
| 20260503234016 | 13 | 261 | 0.0 | 9.7 | 0.00 | 0.00 | 0.00 | 37 | 1010.6 |
| 20260503233514 | 13 | 261 | 1.6 | 9.7 | 0.00 | 0.00 | 0.00 | 36 | 1010.4 |
| 20260503233011 | 13 | 281 | 3.2 | 9.7 | 0.00 | 0.00 | 0.00 | 36 | 1010.4 |
| 20260503232510 | 13 | 249 | 4.8 | 11.3 | 0.00 | 0.00 | 0.00 | 35 | 1010.4 |
| 20260503232008 | 13 | 277 | 3.2 | 11.3 | 0.00 | 0.00 | 0.00 | 34 | 1010.3 |
| 20260503231509 | 14 | 221 | 3.2 | 9.7 | 0.00 | 0.00 | 0.00 | 35 | 1010.3 |
| 20260503231004 | 14 | 232 | 1.6 | 17.7 | 0.00 | 0.00 | 0.00 | 34 | 1010.2 |
| 20260503230502 | 14 | 257 | 8.0 | 17.7 | 0.00 | 0.00 | 0.00 | 32 | 1010.2 |
| 20260503230006 | 14 | 230 | 3.2 | 19.3 | 0.00 | 0.00 | 0.00 | 33 | 1010.2 |
| 20260503225520 | 14 | 287 | 9.7 | 19.3 | 0.00 | 0.00 | 0.00 | 32 | 1010.1 |
| 20260503225018 | 14 | 263 | 8.0 | 25.7 | 0.00 | 0.00 | 0.00 | 32 | 1010.1 |
| 20260503224516 | 14 | 299 | 6.4 | 25.7 | 0.00 | 0.00 | 0.00 | 33 | 1010.1 |
| 20260503224012 | 14 | 338 | 4.8 | 27.4 | 0.00 | 0.00 | 0.00 | 33 | 1010.1 |
| 20260503223517 | 14 | 319 | 9.7 | 22.5 | 0.00 | 0.00 | 0.00 | 33 | 1010.1 |
| 20260503223015 | 14 | 258 | 9.7 | 24.1 | 0.00 | 0.00 | 0.00 | 32 | 1010.1 |
| 20260503222511 | 14 | 286 | 11.3 | 24.1 | 0.00 | 0.00 | 0.00 | 32 | 1010.0 |
| 20260503222008 | 14 | 300 | 8.0 | 24.1 | 0.00 | 0.00 | 0.00 | 33 | 1009.9 |
| 20260503221506 | 14 | 350 | 9.7 | 27.4 | 0.00 | 0.00 | 0.00 | 33 | 1010.0 |
| 20260503221005 | 14 | 300 | 11.3 | 29.0 | 0.00 | 0.00 | 0.00 | 32 | 1010.0 |
| 20260503220503 | 14 | 270 | 12.9 | 35.4 | 0.00 | 0.00 | 0.00 | 32 | 1009.9 |
| 20260503220002 | 14 | 300 | 12.9 | 35.4 | 0.00 | 0.00 | 0.00 | 33 | 1009.9 |
| 20260503215558 | 14 | 329 | 16.1 | 35.4 | 0.00 | 0.00 | 0.00 | 31 | 1010.1 |
| 20260503215016 | 14 | 266 | 11.3 | 30.6 | 0.00 | 0.00 | 0.00 | 33 | 1010.0 |
| 20260503214521 | 14 | 306 | 14.5 | 32.2 | 0.00 | 0.00 | 0.00 | 33 | 1010.1 |
| 20260503214012 | 14 | 325 | 16.1 | 32.2 | 0.00 | 0.00 | 0.00 | 33 | 1010.1 |
| 20260503213510 | 14 | 326 | 11.3 | 25.7 | 0.00 | 0.00 | 0.00 | 33 | 1009.9 |
| 20260503213010 | 14 | 251 | 12.9 | 25.7 | 0.00 | 0.00 | 0.00 | 34 | 1009.9 |
| 20260503212512 | 14 | 355 | 14.5 | 27.4 | 0.00 | 0.00 | 0.00 | 34 | 1009.9 |
| 20260503212011 | 14 | 347 | 9.7 | 33.8 | 0.00 | 0.00 | 0.00 | 35 | 1009.8 |
| 20260503211508 | 14 | 236 | 14.5 | 33.8 | 0.00 | 0.00 | 0.00 | 33 | 1009.8 |
| 20260503211003 | 14 | 281 | 12.9 | 25.7 | 0.00 | 0.00 | 0.00 | 34 | 1009.8 |
| 20260503210507 | 14 | 273 | 11.3 | 25.7 | 0.00 | 0.00 | 0.00 | 36 | 1009.7 |
| 20260503210003 | 14 | 360 | 11.3 | 30.6 | 0.00 | 0.00 | 0.00 | 35 | 1009.6 |
| 20260503205502 | 14 | 306 | 16.1 | 30.6 | 0.00 | 0.00 | 0.00 | 33 | 1009.7 |
| 20260503205100 | 14 | 282 | 12.9 | 25.7 | 0.00 | 0.00 | 0.00 | 35 | 1009.7 |
| 20260503204521 | 14 | 298 | 8.0 | 29.0 | 0.00 | 0.00 | 0.00 | 36 | 1009.6 |
| 20260503204017 | 14 | 255 | 14.5 | 37.0 | 0.00 | 0.00 | 0.00 | 35 | 1009.7 |
| 20260503203515 | 14 | 292 | 16.1 | 38.6 | 0.00 | 0.00 | 0.00 | 35 | 1009.7 |
| 20260503203013 | 14 | 300 | 17.7 | 38.6 | 0.00 | 0.00 | 0.00 | 35 | 1009.7 |
| 20260503202512 | 14 | 259 | 16.1 | 35.4 | 0.00 | 0.00 | 0.00 | 35 | 1009.7 |
| 20260503202010 | 13 | 221 | 9.7 | 27.4 | 0.00 | 0.00 | 0.00 | 37 | 1009.8 |
| 20260503201513 | 13 | 279 | 16.1 | 27.4 | 0.00 | 0.00 | 0.00 | 37 | 1009.7 |
| 20260503201011 | 13 | 345 | 8.0 | 41.8 | 0.00 | 0.00 | 0.00 | 40 | 1009.7 |
| 20260503200507 | 13 | 304 | 14.5 | 41.8 | 0.00 | 0.00 | 0.00 | 38 | 1009.7 |
| 20260503200007 | 13 | 315 | 16.1 | 27.4 | 0.00 | 0.00 | 0.00 | 37 | 1009.8 |
| 20260503195508 | 13 | 293 | 8.0 | 32.2 | 0.00 | 0.00 | 0.00 | 38 | 1009.7 |